Dallas Addison, TX

10:39 PM CDT on May 28, 2017 (GMT -0500)
Addison

Weather History for KADS - June, 2013

Change the Weather History Date:

Thursday, June 27, 2013

  Actual Average Record
Temperature  
Mean Temperature 89 °F -  
Max Temperature 98 °F 90 °F 100 °F (2012)
Min Temperature 80 °F 73 °F 66 °F (2003)
Cooling Degree Days 24    
Growing Degree Days 39 (Base 50)    
Moisture  
Dew Point 64 °F    
Average Humidity 46    
Maximum Humidity 70    
Minimum Humidity 30    
Precipitation  
Precipitation 0.00 in - - ()
Sea Level Pressure  
Sea Level Pressure 29.95 in    
Wind  
Wind Speed 8 mph (South)    
Max Wind Speed 13 mph    
Max Gust Speed 18 mph    
Visibility 11 miles    
Events      
Averages and records for this station are not official NWS values.
T = Trace of Precipitation, MM = Missing Value Source: NWS Daily Summary

Daily Weather History Graph

Daily Weather History Graph

Search for Another Location

Airport or City:

Trip Planner

Search our weather history database for the weather conditions in past years. The results will help you decide how hot, cold, wet, or windy it might be!

Date:

Astronomy

Jun. 27, 2013 Rise Set
Actual Time 6:21 AM CDT 8:39 PM CDT
Civil Twilight 5:52 AM CDT 9:08 PM CDT
Nautical Twilight 5:17 AM CDT 9:43 PM CDT
Astronomical Twilight 4:38 AM CDT 10:21 PM CDT
Moon 11:55 PM CDT (6/27) 11:07 AM CDT (6/27)
Length of Visible Light 15h 16m
Length of Day
14h 18m
Waning Gibbous, 76% of the Moon is Illuminated
Jun 27
Waning Gibbous
Jun 29
Last Quarter
Jul 8
New
Jul 15
First Quarter
Jul 22
Full

Hourly Weather History & Observations

Time (CDT) Temp. Heat Index Dew Point Humidity Pressure Visibility Wind Dir Wind Speed Gust Speed Precip Events Conditions
12:15 AM 89.6 °F 89.5 °F 60.8 °F 38% 29.92 in 10.0 mi South 5.8 mph - N/A   Clear
12:35 AM 89.6 °F 89.5 °F 60.8 °F 38% 29.91 in 10.0 mi South 8.1 mph - N/A   Clear
1:15 AM 87.8 °F 87.6 °F 60.8 °F 40% 29.91 in 10.0 mi South 6.9 mph - N/A   Clear
1:35 AM 87.8 °F 87.6 °F 60.8 °F 40% 29.91 in 10.0 mi South 10.4 mph - N/A   Clear
1:55 AM 87.8 °F 87.6 °F 60.8 °F 40% 29.91 in 10.0 mi South 11.5 mph 18.4 mph N/A   Clear
2:15 AM 86.0 °F 86.6 °F 62.6 °F 45% 29.91 in 10.0 mi South 6.9 mph - N/A   Clear
2:35 AM 86.0 °F 86.6 °F 62.6 °F 45% 29.91 in 10.0 mi South 6.9 mph - N/A   Clear
2:55 AM 86.0 °F 86.6 °F 62.6 °F 45% 29.91 in 10.0 mi South 9.2 mph - N/A   Clear
3:15 AM 86.0 °F 86.6 °F 62.6 °F 45% 29.92 in 10.0 mi South 8.1 mph - N/A   Clear
3:35 AM 86.0 °F 86.6 °F 62.6 °F 45% 29.92 in 10.0 mi South 10.4 mph - N/A   Clear
3:55 AM 84.2 °F 85.0 °F 62.6 °F 48% 29.92 in 10.0 mi South 8.1 mph - N/A   Clear
4:15 AM 84.2 °F 85.6 °F 64.4 °F 51% 29.93 in 10.0 mi South 9.2 mph - N/A   Clear
4:35 AM 82.4 °F 83.9 °F 64.4 °F 54% 29.94 in 10.0 mi South 6.9 mph - N/A   Clear
4:55 AM 82.4 °F 83.9 °F 64.4 °F 54% 29.94 in 10.0 mi South 8.1 mph - N/A   Clear
5:15 AM 82.4 °F 83.9 °F 64.4 °F 54% 29.95 in 10.0 mi South 8.1 mph - N/A   Clear
5:35 AM 80.6 °F 82.3 °F 64.4 °F 58% 29.96 in 10.0 mi South 8.1 mph - N/A   Clear
5:47 AM 80.6 °F 83.2 °F 68.0 °F 65% 29.96 in 13.0 mi South 9.2 mph - N/A   Scattered Clouds
5:55 AM 80.6 °F 82.7 °F 66.2 °F 61% 29.96 in 10.0 mi South 8.1 mph - N/A   Clear
6:47 AM 80.6 °F 83.2 °F 68.0 °F 65% 29.99 in 13.0 mi South 6.9 mph 13.8 mph N/A   Scattered Clouds
7:49 AM 80.6 °F 83.9 °F 69.8 °F 70% 30.02 in 13.0 mi South 10.4 mph - N/A   Scattered Clouds
8:47 AM 82.4 °F 86.3 °F 69.8 °F 66% 30.02 in 13.0 mi SSW 9.2 mph 17.3 mph N/A   Partly Cloudy
9:47 AM 84.2 °F 88.4 °F 69.8 °F 62% 30.02 in 13.0 mi South 10.4 mph - N/A   Clear
10:55 AM 87.8 °F 92.6 °F 69.8 °F 55% 30.01 in 10.0 mi South 10.4 mph 17.3 mph N/A   Clear
11:51 AM 89.6 °F 94.7 °F 69.8 °F 52% 30.01 in 10.0 mi SW 4.6 mph - N/A   Clear
12:47 PM 91.4 °F 96.8 °F 69.8 °F 49% 30.00 in 10.0 mi SW 5.8 mph 17.3 mph N/A   Clear
1:47 PM 93.2 °F 98.8 °F 69.8 °F 46% 29.98 in 10.0 mi South 9.2 mph - N/A   Clear
2:47 PM 96.8 °F 101.8 °F 68.0 °F 39% 29.96 in 10.0 mi South 5.8 mph - N/A   Scattered Clouds
3:47 PM 98.6 °F 101.0 °F 64.4 °F 32% 29.94 in 11.0 mi South 6.9 mph - N/A   Mostly Cloudy
4:57 PM 98.6 °F 101.0 °F 64.4 °F 32% 29.94 in 13.0 mi Calm Calm - N/A   Mostly Cloudy
5:47 PM 96.8 °F 100.7 °F 66.2 °F 37% 29.91 in 13.0 mi ESE 11.5 mph 17.3 mph N/A   Mostly Cloudy
6:53 PM 96.8 °F 97.1 °F 60.8 °F 30% 29.90 in 13.0 mi ESE 9.2 mph - N/A   Mostly Cloudy
7:57 PM 95.0 °F 98.5 °F 66.2 °F 39% 29.88 in 13.0 mi SE 12.7 mph - N/A   Scattered Clouds
8:47 PM 93.2 °F 94.1 °F 62.6 °F 36% 29.88 in 13.0 mi SSE 8.1 mph - N/A   Scattered Clouds
9:47 PM 91.4 °F - - N/A% 29.92 in 13.0 mi SE 5.8 mph - N/A   Partly Cloudy
10:15 PM 91.4 °F 91.4 °F 60.8 °F 36% 29.94 in 10.0 mi ESE 5.8 mph - N/A   Clear
10:35 PM 91.4 °F 91.4 °F 60.8 °F 36% 29.96 in 10.0 mi East 4.6 mph - N/A   Clear
10:55 PM 89.6 °F 89.5 °F 60.8 °F 38% 29.96 in 10.0 mi ESE 4.6 mph - N/A   Clear
11:15 PM 89.6 °F 88.9 °F 59.0 °F 36% 29.96 in 10.0 mi ESE 5.8 mph - N/A   Clear
11:35 PM 89.6 °F 88.9 °F 59.0 °F 36% 29.96 in 10.0 mi SE 8.1 mph - N/A   Clear
11:55 PM 89.6 °F 88.9 °F 59.0 °F 36% 29.95 in 10.0 mi SE 9.2 mph - N/A   Clear